DW9310 Weather Reports


Display with metric or nautical units.
time (UTC)temp
F
wind
direction
speed
MPH
gust
MPH
rain 1hr
in
rain 24hr
in
rain mn
in
humidity
%
barometer
mb
20260906153003 74 191 2.0 4.0 0.00 0.00 0.00 74 1019.6
20260906152502 74 229 3.0 4.0 0.00 0.00 0.00 72 1019.6
20260906152217 74 357 2.0 2.0 0.00 0.00 0.00 74 1019.6
20260906151504 74 228 0.0 2.0 0.00 0.00 0.00 74 1020.0
20260906151003 73 203 2.0 4.0 0.00 0.00 0.00 75 1020.0
20260906150503 73 245 2.0 2.0 0.00 0.00 0.00 76 1020.0
20260906150003 73 255 1.0 2.0 0.00 0.00 0.00 76 1019.6
20260906145503 74 5 3.0 3.0 0.00 0.00 0.00 74 1020.0
20260906145003 73 177 3.0 3.0 0.00 0.00 0.00 77 1019.6
20260906144503 73 194 6.0 6.0 0.00 0.00 0.00 76 1019.6
20260906144217 73 44 3.0 3.0 0.00 0.00 0.00 76 1019.3
20260906143718 72 9 0.0 4.0 0.00 0.00 0.00 79 1019.6
20260906143003 72 358 0.0 4.0 0.00 0.00 0.00 78 1019.6
20260906142503 72 46 5.0 5.0 0.00 0.00 0.00 79 1019.6
20260906142003 72 118 1.0 3.0 0.00 0.00 0.00 80 1019.6
20260906141503 71 353 1.0 3.0 0.00 0.00 0.00 81 1019.6
20260906141003 71 168 2.0 4.0 0.00 0.00 0.00 82 1019.6
20260906140503 70 21 2.0 3.0 0.00 0.00 0.00 83 1019.6
20260906140003 70 44 2.0 5.0 0.00 0.00 0.00 83 1019.6
20260906135503 69 55 2.0 3.0 0.00 0.00 0.00 85 1020.0
20260906135003 69 70 2.0 2.0 0.00 0.00 0.00 86 1020.3
20260906134503 68 35 1.0 2.0 0.00 0.00 0.00 92 1020.0
20260906134219 66 92 2.0 2.0 0.00 0.00 0.00 96 1020.0
20260906133503 66 44 2.0 2.0 0.00 0.00 0.00 98 1020.3
20260906133219 65 59 2.0 2.0 0.00 0.00 0.00 98 1020.3
20260906132502 65 28 1.0 2.0 0.00 0.00 0.00 98 1020.0
20260906132219 64 25 2.0 2.0 0.00 0.00 0.00 98 1020.3
20260906131503 63 52 2.0 3.0 0.00 0.00 0.00 99 1020.3
20260906131003 63 86 2.0 2.0 0.00 0.00 0.00 99 1020.0
20260906130718 63 39 2.0 3.0 0.00 0.00 0.00 98 1020.0
20260906130003 62 87 2.0 2.0 0.00 0.00 0.00 99 1019.6
20260906125718 62 58 1.0 2.0 0.00 0.00 0.00 98 1020.0
20260906125003 62 184 2.0 2.0 0.00 0.00 0.00 98 1020.3
20260906124503 61 51 0.0 2.0 0.00 0.00 0.00 98 1020.3
20260906124003 61 52 1.0 2.0 0.00 0.00 0.00 98 1020.0
20260906123503 61 18 1.0 1.0 0.00 0.00 0.00 98 1020.3
20260906123003 60 103 0.0 0.0 0.00 0.00 0.00 98 1020.3
20260906122502 60 55 0.0 1.0 0.00 0.00 0.00 98 1020.0
20260906122218 60 111 0.0 2.0 0.00 0.00 0.00 98 1019.6
20260906121503 59 115 0.0 2.0 0.00 0.00 0.00 98 1020.0
20260906121003 59 107 0.0 1.0 0.00 0.00 0.00 98 1020.0
20260906120503 59 22 0.0 0.0 0.00 0.00 0.00 98 1019.6
20260906120218 58 58 0.0 1.0 0.00 0.00 0.00 98 1019.6
20260906115503 58 141 1.0 1.0 0.00 0.00 0.00 98 1020.0
20260906115003 58 48 0.0 1.0 0.00 0.00 0.00 98 1019.6
20260906114503 58 60 1.0 2.0 0.00 0.00 0.00 98 1019.6
20260906114218 58 166 2.0 2.0 0.00 0.00 0.00 98 1019.6
20260906113503 57 0 0.0 0.0 0.00 0.00 0.00 99 1019.3
20260906113003 57 89 0.0 1.0 0.00 0.00 0.00 99 1019.3
20260906112502 57 94 1.0 1.0 0.00 0.00 0.00 99 1019.3
20260906112003 57 32 0.0 1.0 0.00 0.00 0.00 99 1019.3
20260906111503 58 222 1.0 2.0 0.00 0.00 0.00 99 1019.0
20260906111003 58 133 0.0 1.0 0.00 0.00 0.00 99 1019.0
20260906110503 58 348 0.0 2.0 0.00 0.00 0.00 99 1019.0
20260906110003 58 47 0.0 1.0 0.00 0.00 0.00 98 1019.0
20260906105503 58 81 0.0 1.0 0.00 0.00 0.00 98 1019.0
20260906105003 58 70 0.0 1.0 0.00 0.00 0.00 98 1019.0
20260906104503 58 24 0.0 1.0 0.00 0.00 0.00 98 1019.0
20260906104003 58 114 0.0 1.0 0.00 0.00 0.00 98 1019.0
20260906103503 58 304 0.0 1.0 0.00 0.00 0.00 98 1019.0
20260906103003 58 337 0.0 2.0 0.00 0.00 0.00 98 1019.3
20260906102503 58 243 0.0 0.0 0.00 0.00 0.00 98 1019.0
20260906102003 58 154 0.0 1.0 0.00 0.00 0.00 98 1019.3
20260906101503 58 68 1.0 1.0 0.00 0.00 0.00 98 1019.0
20260906101003 58 136 0.0 1.0 0.00 0.00 0.00 98 1019.0
20260906100503 58 32 0.0 1.0 0.00 0.00 0.00 98 1019.0
20260906100217 57 57 1.0 2.0 0.00 0.00 0.00 98 1019.3
20260906095502 57 104 0.0 0.0 0.00 0.00 0.00 99 1019.3
20260906095003 58 50 0.0 1.0 0.00 0.00 0.00 98 1019.0
20260906094503 58 129 0.0 2.0 0.00 0.00 0.00 98 1019.0
20260906094003 58 158 0.0 1.0 0.00 0.00 0.00 98 1019.0
20260906093718 58 104 0.0 1.0 0.00 0.00 0.00 98 1018.6
20260906093003 58 350 0.0 2.0 0.00 0.00 0.00 98 1019.0
20260906092503 58 95 1.0 2.0 0.00 0.00 0.00 98 1019.0
20260906092003 58 66 1.0 1.0 0.00 0.00 0.00 98 1019.0
20260906091503 58 123 1.0 2.0 0.00 0.00 0.00 98 1019.0
20260906091003 58 116 0.0 0.0 0.00 0.00 0.00 98 1019.0
20260906090503 58 85 0.0 1.0 0.00 0.00 0.00 98 1019.0
20260906090217 58 33 1.0 2.0 0.00 0.00 0.00 98 1019.0
20260906085503 58 50 2.0 2.0 0.00 0.00 0.00 98 1019.0
20260906085003 58 101 0.0 1.0 0.00 0.00 0.00 98 1019.0
20260906084503 58 131 2.0 2.0 0.00 0.00 0.00 98 1018.6
20260906084003 57 133 0.0 1.0 0.00 0.00 0.00 98 1018.6
20260906083503 57 165 1.0 2.0 0.00 0.00 0.00 98 1018.6
20260906083219 58 47 1.0 2.0 0.00 0.00 0.00 98 1019.0
20260906082502 57 107 2.0 2.0 0.00 0.00 0.00 98 1018.6
20260906082219 57 114 1.0 2.0 0.00 0.00 0.00 98 1018.6
20260906081503 57 136 1.0 2.0 0.00 0.00 0.00 98 1019.0
20260906081003 57 191 1.0 2.0 0.00 0.00 0.00 98 1018.6
20260906080718 58 82 1.0 2.0 0.00 0.00 0.00 98 1018.6
20260906080003 58 133 1.0 2.0 0.00 0.00 0.00 98 1018.6
20260906075503 58 155 0.0 1.0 0.00 0.00 0.00 98 1018.6
20260906075003 58 117 1.0 2.0 0.00 0.00 0.00 98 1018.6
20260906074503 57 171 2.0 2.0 0.00 0.00 0.00 98 1018.6
20260906074003 57 168 0.0 1.0 0.00 0.00 0.00 98 1018.6
20260906073503 58 135 2.0 3.0 0.00 0.00 0.00 98 1018.6
20260906073002 58 38 0.0 2.0 0.00 0.00 0.00 98 1018.6
20260906072503 58 28 0.0 2.0 0.00 0.00 0.00 98 1018.6
20260906072002 58 107 2.0 2.0 0.00 0.00 0.00 98 1019.0
20260906071503 58 230 0.0 2.0 0.00 0.00 0.00 98 1018.6
20260906071003 58 25 0.0 2.0 0.00 0.00 0.00 98 1018.6
20260906070503 58 73 2.0 2.0 0.00 0.00 0.00 98 1018.6
20260906070003 58 93 0.0 1.0 0.00 0.00 0.00 97 1019.0
20260906065503 58 225 0.0 2.0 0.00 0.00 0.00 98 1018.6
20260906065218 57 175 2.0 2.0 0.00 0.00 0.00 98 1018.6
20260906064503 57 79 0.0 2.0 0.00 0.00 0.00 98 1018.3
20260906064003 57 165 0.0 2.0 0.00 0.00 0.00 98 1018.6
20260906063503 57 100 0.0 2.0 0.00 0.00 0.00 98 1018.3
20260906063003 57 0 1.0 3.0 0.00 0.00 0.00 98 1018.3
20260906062503 57 167 0.0 2.0 0.00 0.00 0.00 98 1018.3
20260906062218 57 29 0.0 0.0 0.00 0.00 0.00 98 1018.6
20260906061717 58 154 0.0 1.0 0.00 0.00 0.00 97 1018.3
20260906061218 58 102 0.0 0.0 0.00 0.00 0.00 97 1018.6
20260906060503 58 102 0.0 0.0 0.00 0.00 0.00 97 1018.6
20260906060003 59 117 0.0 0.0 0.00 0.00 0.00 97 1018.3
20260906055710 59 135 0.0 0.0 0.00 0.00 0.00 96 1018.6
20260906055648 58 113 0.0 0.0 0.00 0.00 0.00 96 1018.6
20260906054719 58 37 0.0 0.0 0.00 0.00 0.00 96 1018.3
20260906054003 58 43 0.0 1.0 0.00 0.00 0.00 97 1018.3
20260906053503 58 34 0.0 0.0 0.00 0.00 0.00 97 1018.3
20260906053003 57 117 0.0 0.0 0.00 0.00 0.00 97 1017.9
20260906052503 57 44 0.0 0.0 0.00 0.00 0.00 97 1017.9
20260906052003 57 63 0.0 0.0 0.00 0.00 0.00 97 1017.9
20260906051503 58 117 0.0 0.0 0.00 0.00 0.00 97 1017.9
20260906051003 58 117 0.0 0.0 0.00 0.00 0.00 97 1017.9
20260906050503 58 89 0.0 0.0 0.00 0.00 0.00 97 1017.9
20260906050218 58 62 0.0 0.0 0.00 0.00 0.00 97 1017.9
20260906045502 58 128 0.0 0.0 0.00 0.00 0.00 97 1017.9
20260906045003 58 117 0.0 0.0 0.00 0.00 0.00 97 1017.9
20260906044503 58 135 0.0 0.0 0.00 0.00 0.00 96 1017.6
20260906044003 58 135 0.0 0.0 0.00 0.00 0.00 96 1017.9
20260906043503 58 144 0.0 1.0 0.00 0.00 0.00 96 1017.9
20260906043003 59 44 0.0 0.0 0.00 0.00 0.00 96 1017.6
20260906042503 59 38 0.0 0.0 0.00 0.00 0.00 96 1017.6
20260906042003 59 114 0.0 1.0 0.00 0.00 0.00 96 1017.9
20260906041503 59 98 0.0 1.0 0.00 0.00 0.00 96 1017.6
20260906041003 59 154 0.0 0.0 0.00 0.00 0.00 96 1017.6
20260906040503 59 44 0.0 0.0 0.00 0.00 0.00 96 1017.6
20260906040003 59 133 0.0 1.0 0.00 0.00 0.00 95 1017.6
20260906035502 59 51 0.0 0.0 0.00 0.00 0.00 95 1017.6
20260906035003 59 62 0.0 0.0 0.00 0.00 0.00 95 1017.9
20260906034503 59 50 0.0 0.0 0.00 0.00 0.00 95 1017.6
20260906034003 60 62 0.0 0.0 0.00 0.00 0.00 95 1017.6
20260906033503 60 37 0.0 1.0 0.00 0.00 0.00 95 1017.3
20260906033219 60 44 0.0 0.0 0.00 0.00 0.00 94 1017.3
20260906032502 60 124 0.0 0.0 0.00 0.00 0.00 94 1017.3
20260906032219 60 44 0.0 0.0 0.00 0.00 0.00 94 1017.3
20260906031503 61 44 0.0 0.0 0.00 0.00 0.00 94 1017.6
20260906031003 61 44 0.0 0.0 0.00 0.00 0.00 94 1017.3
20260906030503 61 55 0.0 0.0 0.00 0.00 0.00 94 1017.3
20260906030219 62 135 0.0 0.0 0.00 0.00 0.00 94 1017.3
20260906025503 62 129 0.0 0.0 0.00 0.00 0.00 93 1017.6
20260906025003 62 135 0.0 0.0 0.00 0.00 0.00 93 1017.3
20260906024718 62 150 0.0 1.0 0.00 0.00 0.00 92 1016.9
20260906024003 62 119 0.0 0.0 0.00 0.00 0.00 92 1016.9
20260906023503 63 66 0.0 0.0 0.00 0.00 0.00 91 1017.3
20260906023003 63 66 0.0 0.0 0.00 0.00 0.00 90 1017.3
20260906022503 64 104 0.0 0.0 0.00 0.00 0.00 90 1016.9
20260906022003 64 75 0.0 0.0 0.00 0.00 0.00 88 1016.9
20260906021502 64 89 0.0 0.0 0.00 0.00 0.00 88 1017.3
20260906021218 65 129 0.0 0.0 0.00 0.00 0.00 88 1017.3
20260906020503 65 112 0.0 0.0 0.00 0.00 0.00 88 1016.9
20260906020003 65 142 0.0 0.0 0.00 0.00 0.00 88 1016.9
20260906015503 64 60 2.0 2.0 0.00 0.00 0.00 90 1016.9
20260906015003 64 83 0.0 1.0 0.00 0.00 0.00 90 1016.9
20260906014503 65 44 0.0 1.0 0.00 0.00 0.00 90 1016.9
20260906014219 65 77 0.0 0.0 0.00 0.00 0.00 90 1016.9
20260906013503 66 142 0.0 0.0 0.00 0.00 0.00 90 1016.9
20260906013003 66 135 0.0 0.0 0.00 0.00 0.00 89 1016.9
20260906012717 66 157 0.0 0.0 0.00 0.00 0.00 89 1016.6
20260906012002 66 104 0.0 0.0 0.00 0.00 0.00 89 1016.6
20260906011503 66 77 0.0 0.0 0.00 0.00 0.00 89 1016.6
20260906011218 66 37 0.0 0.0 0.00 0.00 0.00 87 1016.6
20260906010503 67 50 0.0 0.0 0.00 0.00 0.00 86 1016.6
20260906010003 68 103 0.0 0.0 0.00 0.00 0.00 84 1016.6
20260906005719 68 103 0.0 0.0 0.00 0.00 0.00 84 1016.3
20260906005003 69 135 0.0 0.0 0.00 0.00 0.00 83 1016.3
20260906004503 69 37 0.0 0.0 0.00 0.00 0.00 81 1016.6
20260906004003 69 33 1.0 1.0 0.00 0.00 0.00 80 1016.3
20260906003503 69 30 0.0 2.0 0.00 0.00 0.00 80 1016.3
20260906003218 70 297 0.0 0.0 0.00 0.00 0.00 79 1016.3
20260906002503 70 34 0.0 1.0 0.00 0.00 0.00 78 1015.9
20260906002433 71 37 0.0 0.0 0.00 0.00 0.00 77 1016.3
20260906001503 71 75 0.0 1.0 0.00 0.00 0.00 76 1016.3
20260906001003 72 60 1.0 1.0 0.00 0.00 0.00 75 1016.3
20260906000503 72 14 0.0 1.0 0.00 0.00 0.00 75 1016.3
20260906000003 72 261 1.0 1.0 0.00 0.00 0.00 74 1016.3
20260905235719 73 28 0.0 2.0 0.00 0.00 0.00 73 1016.3
20260905235003 73 37 0.0 0.0 0.00 0.00 0.00 73 1015.9
20260905234503 74 93 0.0 1.0 0.00 0.00 0.00 72 1016.3
20260905234003 74 17 0.0 3.0 0.00 0.00 0.00 71 1015.9
20260905233503 74 53 2.0 2.0 0.00 0.00 0.00 71 1015.9
20260905233003 75 62 1.0 3.0 0.00 0.00 0.00 72 1015.9
20260905232502 75 74 2.0 2.0 0.00 0.00 0.00 72 1015.9
20260905232003 75 50 0.0 2.0 0.00 0.00 0.00 71 1016.3
20260905231503 74 195 1.0 2.0 0.00 0.00 0.00 73 1016.3
20260905231003 74 327 2.0 2.0 0.00 0.00 0.00 73 1016.3
20260905230503 74 62 0.0 0.0 0.00 0.00 0.00 73 1016.3
20260905230003 74 19 4.0 5.0 0.00 0.00 0.00 74 1016.3
20260905225503 74 119 0.0 1.0 0.00 0.00 0.00 75 1016.3
20260905225217 75 354 2.0 2.0 0.00 0.00 0.00 74 1015.9
20260905224503 75 48 0.0 2.0 0.00 0.00 0.00 76 1015.9
20260905224217 75 38 2.0 3.0 0.00 0.00 0.00 75 1015.9
20260905223503 75 7 4.0 4.0 0.00 0.00 0.00 74 1015.9
20260905223003 75 108 1.0 3.0 0.00 0.00 0.00 76 1015.9
20260905222718 76 95 6.0 6.0 0.00 0.00 0.00 75 1015.2
20260905222003 76 69 2.0 7.0 0.00 0.00 0.00 74 1015.6
20260905221503 75 71 3.0 3.0 0.00 0.00 0.00 76 1015.2
20260905221003 74 50 2.0 2.0 0.00 0.00 0.00 78 1015.2
20260905220503 74 52 1.0 4.0 0.00 0.00 0.00 78 1015.6
20260905220003 74 40 3.0 3.0 0.00 0.00 0.00 79 1015.9
20260905215503 74 32 2.0 2.0 0.00 0.00 0.00 80 1015.9
20260905215219 74 17 2.0 3.0 0.00 0.00 0.00 80 1015.6
20260905214503 74 29 1.0 1.0 0.00 0.00 0.00 81 1015.9
20260905214003 74 18 0.0 1.0 0.00 0.00 0.00 81 1015.9
20260905213503 73 81 0.0 0.0 0.00 0.00 0.00 81 1015.9
20260905213003 73 22 0.0 1.0 0.00 0.00 0.00 81 1015.9
20260905212503 73 33 0.0 1.0 0.00 0.00 0.00 81 1015.9
20260905212003 73 52 0.0 0.0 0.00 0.00 0.00 80 1016.3
20260905211718 73 96 0.0 1.0 0.00 0.00 0.00 80 1015.9
20260905211219 73 337 2.0 2.0 0.00 0.00 0.00 80 1016.3
20260905210503 74 49 2.0 2.0 0.00 0.00 0.00 80 1015.9
20260905210003 74 130 2.0 2.0 0.00 0.00 0.00 80 1015.9
20260905205502 74 334 0.0 0.0 0.00 0.00 0.00 79 1015.9
20260905205003 74 339 3.0 3.0 0.00 0.00 0.00 79 1015.9
20260905204503 74 43 0.0 0.0 0.00 0.00 0.00 79 1015.9
20260905204219 74 356 3.0 3.0 0.00 0.00 0.00 80 1015.9
20260905203503 74 37 0.0 1.0 0.00 0.00 0.00 81 1015.9
20260905203433 74 342 3.0 3.0 0.00 0.00 0.00 80 1015.9
20260905202717 74 336 6.0 6.0 0.00 0.00 0.00 81 1015.9
20260905202003 74 50 3.0 3.0 0.00 0.00 0.00 80 1015.9
20260905201503 74 348 2.0 2.0 0.00 0.00 0.00 81 1015.9
20260905201003 74 48 0.0 1.0 0.00 0.00 0.00 80 1015.9
20260905200503 74 81 2.0 3.0 0.00 0.00 0.00 80 1015.9
20260905200003 74 276 2.0 4.0 0.00 0.00 0.00 81 1016.3
20260905195932 74 338 3.0 4.0 0.00 0.00 0.00 81 1015.9
20260905195003 74 325 3.0 5.0 0.00 0.00 0.00 81 1016.3
20260905194503 74 60 3.0 3.0 0.00 0.00 0.00 80 1015.9
20260905194433 74 58 2.0 3.0 0.00 0.00 0.00 82 1015.9
20260905193503 74 5 1.0 1.0 0.00 0.00 0.00 81 1015.9
20260905193003 74 345 0.0 1.0 0.00 0.00 0.00 82 1015.9
20260905192502 74 51 2.0 4.0 0.00 0.00 0.00 81 1015.9
20260905192003 74 54 2.0 5.0 0.00 0.00 0.00 83 1015.9
20260905191503 74 182 2.0 3.0 0.00 0.00 0.00 82 1015.9
20260905191218 74 338 3.0 4.0 0.00 0.00 0.00 82 1015.9
20260905190719 74 349 1.0 1.0 0.00 0.00 0.00 82 1015.9
20260905190433 74 359 1.0 1.0 0.00 0.00 0.00 82 1015.9
20260905185503 74 13 2.0 3.0 0.00 0.00 0.00 82 1015.6
20260905185218 74 320 2.0 2.0 0.00 0.00 0.00 83 1015.9
20260905184503 74 344 3.0 3.0 0.00 0.00 0.00 82 1015.9
20260905184003 74 344 5.0 6.0 0.00 0.00 0.00 83 1015.9
20260905183503 74 349 4.0 5.0 0.00 0.00 0.00 82 1016.3
20260905183003 74 357 2.0 4.0 0.00 0.00 0.00 82 1015.9
20260905182502 74 67 3.0 3.0 0.00 0.00 0.00 83 1015.9
20260905182003 74 47 1.0 4.0 0.00 0.00 0.00 83 1016.3
20260905181503 73 32 2.0 3.0 0.00 0.00 0.00 84 1016.3
20260905181003 74 28 2.0 3.0 0.00 0.00 0.00 83 1015.9
20260905180503 74 84 3.0 3.0 0.00 0.00 0.00 81 1015.9
20260905180003 74 29 2.0 3.0 0.00 0.00 0.00 80 1015.9
20260905175503 74 46 2.0 3.0 0.00 0.00 0.00 83 1016.3
20260905175003 73 44 3.0 3.0 0.00 0.00 0.00 83 1016.3
20260905174503 74 31 3.0 3.0 0.00 0.00 0.00 83 1015.9
20260905174003 73 162 1.0 3.0 0.00 0.00 0.00 84 1015.9
20260905173503 73 294 2.0 2.0 0.00 0.00 0.00 83 1016.3
20260905173003 73 217 0.0 1.0 0.00 0.00 0.00 84 1016.3
20260905172502 72 52 2.0 3.0 0.00 0.00 0.00 85 1016.3
20260905172003 73 8 2.0 3.0 0.00 0.00 0.00 84 1016.3
20260905171503 72 68 0.0 2.0 0.00 0.00 0.00 85 1016.3
20260905171003 72 38 4.0 4.0 0.00 0.00 0.00 85 1016.3
20260905170503 72 16 3.0 4.0 0.00 0.00 0.00 85 1016.3
20260905170003 72 115 0.0 1.0 0.00 0.00 0.00 85 1016.3
20260905165503 72 65 1.0 3.0 0.00 0.00 0.00 85 1016.3
20260905165003 72 3 0.0 2.0 0.00 0.00 0.00 86 1016.3
20260905164503 72 0 0.0 3.0 0.00 0.00 0.00 86 1016.6
20260905164003 72 80 3.0 3.0 0.00 0.00 0.00 87 1016.3
20260905163503 72 176 0.0 2.0 0.00 0.00 0.00 87 1016.3
20260905163003 71 79 1.0 3.0 0.00 0.00 0.00 87 1016.3
20260905162502 72 359 3.0 4.0 0.00 0.00 0.00 87 1016.3
20260905162003 72 337 3.0 3.0 0.00 0.00 0.00 87 1016.3
20260905161718 72 335 4.0 4.0 0.00 0.00 0.00 87 1016.3
20260905161003 72 340 4.0 4.0 0.00 0.00 0.00 87 1016.3
20260905160503 72 4 2.0 2.0 0.00 0.00 0.00 87 1016.3
20260905160003 72 57 2.0 4.0 0.00 0.00 0.00 86 1016.3
20260905155503 72 112 1.0 1.0 0.00 0.00 0.00 86 1016.3
20260905155003 72 338 2.0 3.0 0.00 0.00 0.00 85 1015.9
20260905154503 72 25 4.0 6.0 0.00 0.00 0.00 85 1015.9
20260905154003 72 41 3.0 4.0 0.00 0.00 0.00 85 1015.9
20260905153503 72 7 4.0 6.0 0.00 0.00 0.00 85 1015.6